Laramie, WY

6:36 AM MDT on April 25, 2017 (GMT -0600)
Laramie Regional

Weather History for KLAR - October, 2012

Change the Weather History Date:

Tuesday, October 23, 2012

  Actual Average Record
Temperature  
Mean Temperature 46 °F 40 °F  
Max Temperature 62 °F 53 °F 73 °F (1954)
Min Temperature 30 °F 26 °F 3 °F (1978)
Degree Days  
Heating Degree Days 19 25  
Month to date heating degree days 477 498  
Since 1 July heating degree days 812 1023  
Cooling Degree Days 0 0  
Month to date cooling degree days 0 0  
Year to date cooling degree days 211 67  
Moisture  
Dew Point 25 °F    
Average Humidity 53    
Maximum Humidity 85    
Minimum Humidity 21    
Precipitation  
Precipitation 0.00 in 0.02 in 0.54 in (1975)
Month to date precipitation 0.52 0.62  
Year to date precipitation 5.41 9.88  
Sea Level Pressure  
Sea Level Pressure 29.64 in    
Wind  
Wind Speed 15 mph (West)    
Max Wind Speed 39 mph    
Max Gust Speed 49 mph    
Visibility 10 miles    
Events      
T = Trace of Precipitation, MM = Missing Value Source: NWS Daily Summary

Daily Weather History Graph

Daily Weather History Graph

Search for Another Location

Airport or City:

Trip Planner

Search our weather history database for the weather conditions in past years. The results will help you decide how hot, cold, wet, or windy it might be!

Date:

Astronomy

Oct. 23, 2012 Rise Set
Actual Time 7:24 AM MDT 6:09 PM MDT
Civil Twilight 6:55 AM MDT 6:37 PM MDT
Nautical Twilight 6:23 AM MDT 7:09 PM MDT
Astronomical Twilight 5:51 AM MDT 7:41 PM MDT
Moon 2:57 PM MDT (10/23) 1:15 AM MDT (10/23)
Length of Visible Light 11h 41m
Length of Day
10h 44m
Waxing Gibbous, 67% of the Moon is Illuminated
Oct 23
Waxing Gibbous
Oct 29
Full
Nov 6
Last Quarter
Nov 13
New
Nov 20
First Quarter

Hourly Weather History & Observations

Time (MDT) Temp. Windchill Dew Point Humidity Pressure Visibility Wind Dir Wind Speed Gust Speed Precip Events Conditions
12:53 AM 45.0 °F 39.7 °F 26.1 °F 48% 29.54 in 10.0 mi SSW 10.4 mph - N/A   Clear
1:53 AM 44.1 °F 39.5 °F 25.0 °F 47% 29.51 in 10.0 mi SW 8.1 mph - N/A   Clear
2:53 AM 44.1 °F 39.5 °F 25.0 °F 47% 29.53 in 10.0 mi South 8.1 mph - N/A   Clear
3:53 AM 39.9 °F - 25.0 °F 55% 29.52 in 10.0 mi Calm Calm - N/A   Clear
4:53 AM 39.9 °F 32.1 °F 26.1 °F 58% 29.49 in 10.0 mi South 13.8 mph - N/A   Clear
5:53 AM 41.0 °F 33.5 °F 26.1 °F 55% 29.56 in 10.0 mi South 13.8 mph - N/A   Clear
6:53 AM 44.1 °F 36.5 °F 25.0 °F 47% 29.57 in 10.0 mi SW 17.3 mph - N/A   Clear
7:53 AM 45.0 °F 37.4 °F 24.1 °F 44% 29.62 in 10.0 mi SW 18.4 mph - N/A   Clear
8:53 AM 53.1 °F - 24.1 °F 32% 29.60 in 10.0 mi SSW 21.9 mph 31.1 mph N/A   Clear
9:53 AM 54.0 °F - 23.0 °F 30% 29.61 in 10.0 mi WSW 28.8 mph 36.8 mph N/A   Scattered Clouds
11:53 AM 57.9 °F - 21.9 °F 25% 29.54 in 10.0 mi WSW 35.7 mph 43.7 mph N/A   Clear
12:53 PM 60.1 °F - 21.9 °F 23% 29.55 in 10.0 mi WSW 26.5 mph 38.0 mph N/A   Clear
1:53 PM 57.9 °F - 19.9 °F 23% 29.56 in 10.0 mi WSW 20.7 mph 32.2 mph N/A   Mostly Cloudy
2:53 PM 59.0 °F - 19.0 °F 21% 29.56 in 10.0 mi West 18.4 mph 26.5 mph N/A   Partly Cloudy
3:24 PM 53.6 °F - 28.4 °F 38% 29.81 in 10.0 mi NW 17.3 mph 27.6 mph N/A   Partly Cloudy
3:53 PM 50.0 °F - 28.9 °F 44% 29.65 in 10.0 mi North 24.2 mph 35.7 mph N/A   Clear
4:53 PM 46.0 °F 39.6 °F 26.1 °F 46% 29.71 in 10.0 mi North 15.0 mph 24.2 mph N/A   Clear
5:53 PM 41.0 °F 33.1 °F 24.1 °F 51% 29.76 in 10.0 mi North 15.0 mph - N/A   Clear
6:53 PM 36.0 °F 26.3 °F 24.1 °F 62% 29.80 in 10.0 mi NNE 16.1 mph 25.3 mph N/A   Clear
7:53 PM 34.0 °F 25.5 °F 25.0 °F 70% 29.82 in 10.0 mi NNE 11.5 mph - N/A   Clear
8:53 PM 33.1 °F 26.9 °F 26.1 °F 75% 29.80 in 10.0 mi NNE 6.9 mph - N/A   Clear
9:53 PM 30.9 °F 25.2 °F 26.1 °F 82% 29.79 in 10.0 mi NE 5.8 mph - N/A   Clear
10:53 PM 30.9 °F 24.3 °F 26.1 °F 82% 29.78 in 10.0 mi NNE 6.9 mph - N/A   Mostly Cloudy